If you wish to contribute or participate in the discussions about articles you are invited to join SKYbrary as a registered user

 Actions

Amborovy Airport

From SKYbrary Wiki

FMNM
Airport
ICAO: FMNM – IATA: MJN
Summary
Name Amborovy Airport
Region Africa
Territory Madagascar MG.gif
Location Amborovy, Boeny
Serving Mahajanga
Elevation 26.518 m <br />87 ft26.518 m <br />
Coordinates 15° 40' 0.98" S, 46° 21' 6.01" E
Runways
Designator Length Width Surface ROPS
14/32 2200 m7,217.848 ft <br /> 45 m147.638 ft <br /> ASP /


METAR
Observation FMNM 250900Z 32009KT 9999 SCT020CB 35/22 Q1014 NOSIG
Station Majunga
Date/Time 25 October 2021 09:00:00
Wind direction 320°
Wind speed 09 kts
Lowest cloud amount scattered clouds
Temperature 35°C
Dew point 22°C
Humidity 47%
QNH 1014 hPa
Weather condition n/a

Amborovy Airport, also known as Philibert Tsiranana Airport, is an airport in Mahajanga, Madagascar.

Climatology

Tropical savanna climate (Köppen climate classification Aw)

Maps

Terrain

Loading map...

Airport Layout

Loading map...


Accidents & Serious Incidents at or in vicinity of FMNM

None on SKYbrary